Location: Hoover
(45.1124°N, 103.2678°W)
Time: 04:02:16
(UTC+00:00)

N. Korean satellite - Pass Details

Date: 02 December 2020
Orbit: 453 x 502 km, 97.2° (Epoch: 16 January)

Event Time Altitude Azimuth Distance (km) Brightness Sun altitude
Rises 13:06:27 0° 2° (N) 2,567 10.1 -11.5°
Reaches altitude 10° 13:08:41 10° 351° (N) 1,689 9.0 -11.1°
Maximum altitude 13:11:52 29° 290° (WNW) 922 7.4 -10.6°
Drops below altitude 10° 13:15:04 10° 228° (SW) 1,696 9.1 -10.0°
Sets 13:17:19 0° 218° (SW) 2,580 10.1 -9.7°
